When you browse on this site, cookies collect data to enhance your experience and personalize the content and advertising you see.
Visit our Privacy Policy to learn more. By continuing to use the site, you agree to this use of cookies and data.
  • In United Kingdom
  • List of Countries
  • For 7 days
  • Water Temperature
  • Weather Map
  • Weather Widgets
  • user-avatar
    Login

    Hourly Weather Moncalieri

    Today, 20 September, Friday

    Time Temperature Precipitation Wind Pressure Humidity
    00:00 +18°C° 0 mm 1 mps 747 mmHg 72%
    01:00 +19°C° 0 mm 1 mps 747 mmHg 69%
    02:00 +19°C° 0 mm 1 mps 747 mmHg 68%
    03:00 +19°C° 0 mm 1 mps 747 mmHg 67%
    04:00 +19°C° 0 mm 1 mps 747 mmHg 66%
    05:00 +18°C° 0 mm 1 mps 747 mmHg 68%
    06:00 +18°C° 0 mm 1 mps 747 mmHg 70%
    07:00 +16°C° 0 mm 1 mps 747 mmHg 72%
    08:00 +17°C° 0 mm 2 mps 747 mmHg 67%
    09:00 +18°C° 0 mm 2 mps 747 mmHg 63%
    10:00 +19°C° 0 mm 2 mps 747 mmHg 59%
    11:00 +20°C° 0 mm 2 mps 747 mmHg 56%
    12:00 +21°C° 0 mm 2 mps 747 mmHg 54%
    13:00 +23°C° 0 mm 2 mps 747 mmHg 52%
    14:00 +23°C° 0 mm 2 mps 747 mmHg 52%
    15:00 +23°C° 0 mm 2 mps 746 mmHg 53%
    16:00 +23°C° 0 mm 1 mps 746 mmHg 53%
    17:00 +21°C° 0 mm 1 mps 746 mmHg 59%
    18:00 +20°C° 0 mm 1 mps 746 mmHg 65%
    19:00 +18°C° 0 mm 1 mps 746 mmHg 70%
    20:00 +18°C° 0 mm 1 mps 746 mmHg 72%
    21:00 +16°C° 0 mm 1 mps 746 mmHg 74%
    22:00 +14°C° 0 mm 0 mps 747 mmHg 76%
    23:00 +14°C° 0 mm 0 mps 747 mmHg 77%

    Tomorrow, 21 September, Saturday

    Time Temperature Precipitation Wind Pressure Humidity
    00:00 +14°C° 0 mm 0 mps 747 mmHg 77%
    01:00 +14°C° 0 mm 0 mps 747 mmHg 78%
    02:00 +14°C° 0 mm 0 mps 747 mmHg 77%
    03:00 +14°C° 0 mm 0 mps 747 mmHg 76%
    04:00 +14°C° 0 mm 0 mps 746 mmHg 76%
    05:00 +14°C° 0 mm 0 mps 746 mmHg 75%
    06:00 +14°C° 0 mm 0 mps 746 mmHg 75%
    07:00 +14°C° 0 mm 0 mps 746 mmHg 74%
    08:00 +15°C° 0 mm 0 mps 746 mmHg 70%
    09:00 +18°C° 0 mm 1 mps 746 mmHg 65%
    10:00 +19°C° 0 mm 1 mps 746 mmHg 61%
    11:00 +20°C° 0 mm 1 mps 746 mmHg 58%
    12:00 +21°C° 0 mm 1 mps 746 mmHg 56%
    13:00 +22°C° 0 mm 1 mps 745 mmHg 54%
    14:00 +22°C° 0 mm 1 mps 745 mmHg 54%
    15:00 +22°C° 0 mm 1 mps 745 mmHg 54%
    16:00 +22°C° 0 mm 1 mps 744 mmHg 55%
    17:00 +21°C° 0 mm 1 mps 744 mmHg 59%
    18:00 +20°C° 0 mm 1 mps 744 mmHg 63%
    19:00 +19°C° 0 mm 1 mps 744 mmHg 67%
    20:00 +18°C° 0.6 mm 1 mps 744 mmHg 74%
    21:00 +16°C° 0.6 mm 1 mps 745 mmHg 81%
    22:00 +16°C° 0.6 mm 1 mps 745 mmHg 88%
    23:00 +16°C° 0.2 mm 1 mps 744 mmHg 88%

    Day after tomorrow, 22 September, Sunday

    Time Temperature Precipitation Wind Pressure Humidity
    00:00 +16°C° 0.2 mm 1 mps 744 mmHg 88%
    01:00 +15°C° 0.2 mm 1 mps 744 mmHg 88%
    02:00 +15°C° 0 mm 1 mps 743 mmHg 87%
    03:00 +15°C° 0 mm 1 mps 743 mmHg 86%
    04:00 +15°C° 0 mm 1 mps 743 mmHg 86%
    05:00 +15°C° 0 mm 1 mps 743 mmHg 85%
    06:00 +15°C° 0 mm 1 mps 743 mmHg 85%
    07:00 +16°C° 0 mm 1 mps 743 mmHg 84%
    08:00 +18°C° 0 mm 1 mps 743 mmHg 79%
    09:00 +19°C° 0 mm 1 mps 743 mmHg 73%
    10:00 +20°C° 0 mm 1 mps 743 mmHg 68%
    11:00 +20°C° 0 mm 1 mps 742 mmHg 66%
    12:00 +21°C° 0 mm 1 mps 742 mmHg 63%
    13:00 +21°C° 0 mm 1 mps 742 mmHg 61%
    14:00 +21°C° 0 mm 1 mps 741 mmHg 63%
    15:00 +19°C° 0 mm 2 mps 741 mmHg 65%
    16:00 +19°C° 0 mm 2 mps 740 mmHg 67%
    17:00 +19°C° 0.1 mm 1 mps 740 mmHg 73%
    18:00 +18°C° 0.1 mm 1 mps 740 mmHg 80%
    19:00 +16°C° 0.1 mm 1 mps 740 mmHg 86%
    20:00 +15°C° 0 mm 1 mps 740 mmHg 86%
    21:00 +14°C° 0 mm 0 mps 740 mmHg 87%
    22:00 +13°C° 0 mm 0 mps 740 mmHg 87%
    23:00 +13°C° 0 mm 0 mps 740 mmHg 87%

    23 September, Monday

    Time Temperature Precipitation Wind Pressure Humidity
    00:00 +13°C° 0 mm 0 mps 740 mmHg 87%
    01:00 +13°C° 0 mm 0 mps 740 mmHg 87%
    02:00 +13°C° 1.1 mm 0 mps 739 mmHg 89%
    03:00 +13°C° 1.1 mm 0 mps 739 mmHg 90%
    04:00 +14°C° 1.1 mm 1 mps 739 mmHg 92%
    05:00 +14°C° 0 mm 1 mps 738 mmHg 91%
    06:00 +14°C° 0 mm 1 mps 738 mmHg 90%
    07:00 +14°C° 0 mm 1 mps 738 mmHg 89%
    08:00 +16°C° 0 mm 1 mps 738 mmHg 82%
    09:00 +19°C° 0 mm 1 mps 738 mmHg 76%
    10:00 +20°C° 0 mm 1 mps 739 mmHg 69%
    11:00 +21°C° 0 mm 1 mps 738 mmHg 63%
    12:00 +23°C° 0 mm 1 mps 738 mmHg 57%
    13:00 +24°C° 0 mm 1 mps 738 mmHg 51%
    14:00 +24°C° 0 mm 1 mps 738 mmHg 50%
    15:00 +24°C° 0 mm 2 mps 738 mmHg 50%
    16:00 +24°C° 0 mm 2 mps 738 mmHg 49%
    17:00 +22°C° 0 mm 1 mps 738 mmHg 55%
    18:00 +20°C° 0 mm 1 mps 738 mmHg 60%
    19:00 +18°C° 0 mm 1 mps 738 mmHg 66%
    20:00 +18°C° 0 mm 1 mps 739 mmHg 65%
    21:00 +16°C° 0 mm 1 mps 739 mmHg 64%
    22:00 +16°C° 0 mm 1 mps 740 mmHg 63%
    23:00 +16°C° 0 mm 1 mps 740 mmHg 62%

    24 September, Tuesday

    Time Temperature Precipitation Wind Pressure Humidity
    00:00 +16°C° 0 mm 1 mps 740 mmHg 60%
    01:00 +15°C° 0 mm 1 mps 740 mmHg 59%
    02:00 +15°C° 0 mm 1 mps 740 mmHg 59%
    03:00 +15°C° 0 mm 1 mps 740 mmHg 58%
    04:00 +14°C° 0 mm 0 mps 740 mmHg 58%
    05:00 +14°C° 0 mm 0 mps 740 mmHg 59%
    06:00 +14°C° 0 mm 0 mps 740 mmHg 59%
    07:00 +13°C° 0 mm 0 mps 740 mmHg 60%
    08:00 +16°C° 0 mm 0 mps 740 mmHg 55%
    09:00 +18°C° 0 mm 0 mps 741 mmHg 50%
    10:00 +20°C° 0 mm 0 mps 741 mmHg 45%
    11:00 +23°C° 0 mm 1 mps 741 mmHg 44%
    12:00 +24°C° 0 mm 1 mps 741 mmHg 42%
    13:00 +25°C° 0 mm 1 mps 740 mmHg 41%
    14:00 +25°C° 0 mm 1 mps 740 mmHg 41%
    15:00 +25°C° 0 mm 1 mps 740 mmHg 42%
    16:00 +25°C° 0 mm 1 mps 740 mmHg 43%
    17:00 +24°C° 0 mm 1 mps 740 mmHg 47%
    18:00 +22°C° 0 mm 1 mps 740 mmHg 52%
    19:00 +20°C° 0 mm 1 mps 740 mmHg 56%
    20:00 +20°C° 0 mm 1 mps 740 mmHg 58%
    21:00 +19°C° 0 mm 1 mps 741 mmHg 61%
    22:00 +18°C° 0 mm 1 mps 741 mmHg 63%
    23:00 +16°C° 0 mm 0 mps 741 mmHg 65%

    25 September, Wednesday

    Time Temperature Precipitation Wind Pressure Humidity
    00:00 +16°C° 0 mm 0 mps 740 mmHg 66%
    01:00 +15°C° 0 mm 0 mps 740 mmHg 68%
    02:00 +15°C° 0 mm 0 mps 740 mmHg 69%
    03:00 +15°C° 0 mm 0 mps 740 mmHg 70%
    04:00 +15°C° 0 mm 0 mps 739 mmHg 71%
    05:00 +15°C° 0 mm 0 mps 739 mmHg 71%
    06:00 +15°C° 0 mm 0 mps 739 mmHg 71%
    07:00 +15°C° 0 mm 0 mps 739 mmHg 71%
    08:00 +19°C° 0 mm 1 mps 740 mmHg 66%
    09:00 +21°C° 0 mm 1 mps 740 mmHg 61%
    10:00 +22°C° 0 mm 1 mps 740 mmHg 56%
    11:00 +23°C° 0 mm 1 mps 740 mmHg 54%
    12:00 +24°C° 0 mm 2 mps 740 mmHg 52%
    13:00 +25°C° 0 mm 2 mps 740 mmHg 51%
    14:00 +25°C° 0.1 mm 2 mps 740 mmHg 52%
    15:00 +25°C° 0.1 mm 2 mps 739 mmHg 53%
    16:00 +25°C° 0.1 mm 2 mps 739 mmHg 54%
    17:00 +23°C° 0.1 mm 2 mps 739 mmHg 60%
    18:00 +22°C° 0.1 mm 1 mps 739 mmHg 66%
    19:00 +20°C° 0.1 mm 1 mps 739 mmHg 72%
    20:00 +20°C° 0 mm 1 mps 740 mmHg 74%
    21:00 +19°C° 0 mm 1 mps 740 mmHg 76%
    22:00 +16°C° 0 mm 0 mps 740 mmHg 78%
    23:00 +16°C° 0 mm 0 mps 740 mmHg 77%
    Show more